Location: Ch�tillon
(48.8024°N, 2.2935°E)
Time: 04:06:48
(UTC+00:00)

RS-15 - Visible Passes

Search period start: 28 June 2022 00:00
Search period end: 08 July 2022 00:00
Orbit: 1881 x 2163 km, 64.8° (Epoch: 27 June)

Date Brightness Start Highest point End Pass type
(mag) Time Alt. Az. Time Alt. Az. Time Alt. Az.
28 Jun 8.7 01:34:31 10° NW 01:45:10 37° WSW 01:53:54 15° SSW visible
28 Jun 9.3 20:30:58 10° NW 20:42:23 40° NNE 20:53:42 10° E visible
28 Jun 8.4 22:45:04 10° NW 22:57:30 70° NE 23:09:33 10° SE visible
29 Jun 8.4 00:58:10 10° NW 01:09:33 47° WSW 01:18:11 18° S visible
29 Jun 8.6 22:08:50 10° NW 22:21:08 61° NE 22:33:05 10° ESE visible
30 Jun 8.3 00:21:54 10° NW 00:33:48 58° WSW 00:42:36 20° S visible
30 Jun 9.4 02:37:49 10° WNW 02:43:17 14° W 02:48:40 10° WSW visible
30 Jun 8.8 21:32:33 10° NW 21:44:39 53° NNE 21:56:28 10° ESE visible
30 Jun 8.2 23:45:42 10° NW 23:57:57 71° WSW 00:07:07 20° SSE visible
01 Jul 9.2 02:00:11 10° NW 02:08:03 20° W 02:14:48 12° SW visible
01 Jul 9.0 20:56:11 10° NW 21:08:04 47° NNE 21:19:42 10° E visible
01 Jul 8.1 23:09:32 10° NW 23:21:58 84° SW 23:31:42 18° SSE visible
02 Jul 9.0 01:23:16 10° NW 01:32:41 27° W 01:39:24 16° SW visible
02 Jul 9.1 20:19:43 10° NW 20:31:23 43° NNE 20:42:50 10° E visible
02 Jul 8.2 22:33:22 10° NW 22:45:52 83° NE 22:56:22 16° SE visible
03 Jul 8.8 00:46:41 10° NW 00:57:12 35° WSW 01:04:04 20° SSW visible
03 Jul 8.4 21:57:11 10° NW 22:09:39 72° NE 22:21:06 12° SE visible
04 Jul 8.5 00:10:19 10° NW 00:21:35 45° WSW 00:28:48 23° SSW visible
04 Jul 8.5 21:20:58 10° NW 21:33:18 62° NE 21:45:15 10° ESE visible
04 Jul 8.3 23:34:02 10° NW 23:45:53 56° WSW 23:53:36 24° S visible
05 Jul 9.5 01:50:18 10° WNW 01:55:15 13° W 02:00:08 10° WSW visible
05 Jul 8.7 20:44:42 10° NW 20:56:50 54° NNE 21:08:39 10° ESE visible
05 Jul 8.2 22:57:50 10° NW 23:10:02 69° WSW 23:18:26 23° SSE visible
06 Jul 9.3 01:12:28 10° NW 01:20:02 19° W 01:26:10 13° SW visible
06 Jul 8.2 22:21:40 10° NW 22:34:05 82° SW 22:43:20 20° SSE visible
07 Jul 9.1 00:35:29 10° NW 00:44:41 26° W 00:51:03 17° SW visible
07 Jul 8.2 21:45:30 10° NW 21:58:00 85° NE 22:08:16 16° SE visible
